This demonstration page uses our WeatherBlox Daily Observations layout. Learn more.

Left ArrowRight Arrow

39.92423, -83.80882

Hourly Observations for October 17, 2020

Temp ( °F °C ) Dew Point ( °F °C ) Humidity (%) Winds ( mph kmh ) Pressure ( in mb ) Visibility ( mi km ) Precip ( " mm )
12:56 am 00:56 Clear 39 3.9 27 -2.8 62 62 S 6 9 30.24 1024 10 16.0934 0 0
1:56 am 01:56 Clear 38 3.3 28 -2.2 68 68 SSW 3 6 30.25 1025 10 16.0934 0 0
2:56 am 02:56 Clear 35 1.7 29 -1.7 78 78 W 5 7 30.26 1025 10 16.0934 0 0
3:56 am 03:56 Clear 36 2.2 29 -1.7 76 76 SSW 7 11 30.27 1025 10 16.0934 0 0
4:56 am 04:56 Clear 36 2.2 29 -1.7 76 76 SSW 8 13 30.28 1025 10 16.0934 0 0
5:56 am 05:56 Clear 36 2.2 29 -1.7 76 76 SSW 6 9 30.3 1026 10 16.0934 0 0
6:56 am 06:56 Clear 35 1.7 29 -1.7 78 78 SSW 7 11 30.32 1027 10 16.0934 0 0
7:56 am 07:56 Sunny 34 1.1 30 -1.1 85 85 SSW 5 7 30.33 1027 10 16.0934 0 0
8:56 am 08:56 Sunny 38 3.3 31 -0.6 76 76 Calm 30.35 1028 10 16.0934 0 0
9:56 am 09:56 Sunny 45 7.2 31 -0.6 58 58 SW 6 9 30.36 1028 10 16.0934 0 0
10:56 am 10:56 Sunny 51 10.6 32 0 48 48 VRB 5 7 30.35 1028 10 16.0934 0 0
11:56 am 11:56 Sunny 56 13.3 27 -2.8 33 33 W 10 17 30.35 1028 10 16.0934 0 0
12:56 pm 12:56 Sunny 58 14.4 27 -2.8 31 31 WSW 9 15 30.35 1028 10 16.0934 0 0
1:56 pm 13:56 Sunny 60 15.6 26 -3.3 27 27 SW 6 9 30.32 1027 10 16.0934 0 0
2:56 pm 14:56 Sunny 59 15 25 -3.9 27 27 S 7 11 30.29 1026 10 16.0934 0 0
3:56 pm 15:56 Sunny 59 15 24 -4.4 26 26 S 9 15 30.27 1025 10 16.0934 0 0
4:56 pm 16:56 Partly Cloudy 60 15.6 24 -4.4 25 25 S 5 7 30.25 1024 10 16.0934 0 0
5:56 pm 17:56 Sunny 57 13.9 25 -3.9 29 29 S 8 13 30.24 1024 10 16.0934 0 0
6:56 pm 18:56 Clear 55 12.8 26 -3.3 33 33 S 5 7 30.24 1024 10 16.0934 0 0
7:56 pm 19:56 Clear 52 11.1 28 -2.2 40 40 SE 7 11 30.23 1024 10 16.0934 0 0
8:56 pm 20:56 Clear 50 10 29 -1.7 44 44 SSE 7 11 30.22 1024 10 16.0934 0 0
9:56 pm 21:56 Clear 51 10.6 29 -1.7 43 43 S 9 15 30.22 1023 10 16.0934 0 0
10:56 pm 22:56 Clear 48 8.9 30 -1.1 50 50 SSE 10 17 30.21 1023 10 16.0934 0 0
11:56 pm 23:56 Clear 47 8.3 30 -1.1 52 52 SSE 6 9 30.22 1023 10 16.0934 0 0

Powered by AerisWeather